Date,TemperatureHighF,TemperatureAvgF,TemperatureLowF,DewpointHighF,DewpointAvgF,DewpointLowF,HumidityHigh,HumidityAvg,HumidityLow,PressureMaxIn,PressureMinIn,WindSpeedMaxMPH,WindSpeedAvgMPH,GustSpeedMaxMPH,PrecipitationSumIn
2013-2-1,72.1,66.5,61.0,61.8,55.0,49.1,80,67,54,30.23,30.12,14,10,24,0.00
2013-2-2,73.0,68.2,63.7,61.4,58.0,53.8,82,70,58,30.21,30.09,13,8,21,0.00
2013-2-3,70.2,67.8,64.9,61.7,57.0,47.2,86,69,52,30.16,30.05,14,8,25,0.00
2013-2-4,71.2,68.7,62.8,59.5,55.2,47.6,78,63,46,30.11,30.00,12,7,16,0.00
2013-2-5,75.6,70.4,65.5,67.1,63.9,59.3,90,80,70,30.05,29.98,9,4,14,0.00
2013-2-6,78.6,73.2,68.0,71.5,67.8,65.3,96,83,66,30.07,29.99,11,5,17,0.00
2013-2-7,79.0,75.2,72.1,70.3,67.5,65.1,91,77,63,30.06,29.93,11,6,19,0.00
2013-2-8,81.9,76.0,71.6,74.0,71.6,68.9,93,86,71,30.04,29.93,12,6,17,0.00
2013-2-9,78.1,73.1,68.4,71.5,67.5,63.4,92,83,75,30.12,30.01,16,9,23,0.00
2013-2-10,77.0,75.0,73.0,68.5,66.6,64.5,83,75,66,30.19,30.09,17,13,27,0.00
2013-2-11,78.8,75.8,73.0,70.8,69.2,66.4,88,80,73,30.17,30.08,14,11,22,0.00
2013-2-12,81.1,77.0,74.8,73.7,71.3,69.4,91,83,72,30.09,29.96,10,7,17,0.00
2013-2-13,82.0,77.8,75.2,74.6,73.4,72.2,94,86,75,30.01,29.92,9,5,14,0.00
2013-2-14,82.4,77.3,66.7,75.2,73.1,65.3,96,87,78,29.99,29.89,20,7,35,0.33
2013-2-15,75.0,69.9,66.9,71.1,67.9,65.8,97,93,85,30.00,29.91,10,6,21,0.71
2013-2-16,71.1,68.4,64.6,69.7,61.5,50.7,98,79,60,30.08,29.87,20,12,32,0.21
2013-2-17,64.9,57.6,53.6,52.6,42.0,35.3,69,56,44,30.28,30.07,17,10,31,0.00
2013-2-18,69.6,62.6,54.1,58.7,50.4,35.9,72,64,49,30.27,30.15,18,9,26,0.00
2013-2-19,75.2,70.0,66.7,69.3,65.0,57.0,96,84,65,30.16,30.07,10,6,17,0.66
2013-2-20,75.4,70.7,66.7,69.5,67.3,65.3,97,89,75,30.10,29.98,12,6,17,0.02
2013-2-21,78.1,74.2,69.8,71.7,69.2,67.0,96,85,70,30.06,29.97,10,7,18,0.02
2013-2-22,79.0,76.3,73.9,73.2,72.0,71.1,92,86,79,30.07,29.97,12,8,18,0.00
2013-2-23,81.7,77.9,75.7,74.5,73.1,72.0,93,85,76,30.01,29.92,11,6,18,0.00
2013-2-24,82.2,78.2,75.2,77.2,74.1,72.2,95,87,76,29.99,29.89,7,3,11,0.00
2013-2-25,82.0,78.7,76.5,75.6,74.2,72.3,93,86,73,29.90,29.78,13,7,18,0.00
2013-2-26,82.6,79.3,77.2,75.8,74.1,71.6,90,84,77,29.91,29.78,12,7,22,0.00
2013-2-27,81.7,75.3,71.6,75.8,71.6,68.2,93,88,77,29.96,29.86,13,6,17,0.02
2013-2-28,72.5,70.0,64.9,68.7,59.0,46.3,91,69,42,29.99,29.90,12,6,21,0.00